Content
SEND FEEDBACK

Daily
Averages
Monthly
Summary
United States of America

PERU, VERMONT


Home > North America > United States > Vermont
Elevation: 1660 feet     Latitude: 43 14N     Longitude: 072 54W

WEATHER
 
SELECT A DAY
Number of Records: 454,511;   Date Range: 1/1/95 - 7/23/14
 
SHARE

PRINT THIS DATA

[ ← Previous Day ]
WEATHER ALMANAC - MARCH 4, 2014
[ Next Day → ]
[ °C ]   °F
Weather ElementAverageHighLow
Temperature8.2 °F19.4 °F (1:55 pm)-7.6 °F (3:55 am)
Dewpoint-5.1 °F12.2 °F (6:15 pm)-27.4 °F (6:35 am)
Humidity58.3 %93 % (8:55 pm)22 % (10:55 am)
Barometer30.26 in30.31 in (7:15 am)30.21 in (11:35 pm)
Wind Speed4 mph10.4 mph (6:15 am)
Weather ElementAverage
Visibility8.8 mi
Wind DirectionESE (127.2 °)

Weather ElementTotal
Precipitation---
Heating Degree Days59.1 (Base 65)
Averaged from 71 records on March 4, 2014
WEATHER CONDITIONS BREAKOUT
WIND DIRECTION BREAKOUT
WEATHER BY HOUR - MARCH 4, 2014
[ °C ]   °F
Local TimeTemperatureDewpointHumidityBarometerVisibilityWind DirectionWind SpeedGust SpeedPrecipitationEventsConditions
12:35 AM-0.4 °F-9.4 °F66 %30.26 in10.0 miESE (120°)3.5 mphClear
12:55 AM-2.2 °F-7.6 °F78 %30.27 in10.0 miSE (130°)5.8 mphClear
1:15 AM-2.2 °F-7.6 °F78 %30.28 in10.0 miSE (130°)4.6 mphClear
1:35 AM-2.2 °F-9.4 °F71 %30.28 in10.0 miESE (120°)6.9 mphClear
1:55 AM-2.2 °F-9.4 °F71 %30.29 in10.0 miSE (130°)5.8 mphClear
2:15 AM-4.0 °F-13.0 °F65 %30.29 in10.0 miSSE (150°)6.9 mphClear
2:35 AM-5.8 °F-11.2 °F77 %30.29 in10.0 miSE (130°)5.8 mphClear
2:55 AM-4.0 °F-9.4 °F78 %30.28 in10.0 miSE (130°)5.8 mphClear
3:15 AM-5.8 °F-11.2 °F77 %30.29 in10.0 miSE (140°)8.1 mphClear
3:35 AM-5.8 °F-9.4 °F84 %30.29 in10.0 miSE (130°)5.8 mphClear
3:55 AM-7.6 °F-16.6 °F65 %30.28 in10.0 miSSE (150°)6.9 mphClear
4:15 AM-7.6 °F-16.6 °F65 %30.27 in10.0 miSE (130°)6.9 mphClear
4:35 AM-7.6 °F-16.6 °F65 %30.29 in10.0 miSE (130°)6.9 mphClear
4:55 AM-7.6 °F-20.2 °F54 %30.28 in10.0 miSE (130°)6.9 mphClear
5:15 AM-7.6 °F-22.0 °F50 %30.29 in10.0 miSSE (150°)4.6 mphClear
5:35 AM-7.6 °F0.0 °F30.29 in10.0 miSE (130°)5.8 mphClear
5:55 AM-7.6 °F0.0 °F30.28 in10.0 miSSE (150°)6.9 mphClear
6:15 AM-7.6 °F0.0 °F30.29 in10.0 miSE (130°)10.4 mphClear
6:35 AM-7.6 °F-27.4 °F38 %30.30 in10.0 miSE (130°)8.1 mphClear
6:55 AM-7.6 °F-25.6 °F41 %30.30 in10.0 miESE (120°)8.1 mphClear
7:15 AM-7.6 °F-22.0 °F50 %30.31 in10.0 miESE (120°)8.1 mphClear
7:35 AM-5.8 °F-20.2 °F50 %30.31 in10.0 miSE (130°)8.1 mphClear
7:55 AM-2.2 °F-16.6 °F50 %30.31 in10.0 miSE (130°)5.8 mphClear
8:15 AM-0.4 °F-14.8 °F51 %30.31 in10.0 miSE (140°)3.5 mphClear
8:35 AM1.4 °F-18.4 °F39 %30.31 in10.0 miCalmClear
8:55 AM6.8 °F-22.0 °F26 %30.31 in10.0 miCalmClear
9:15 AM8.6 °F-14.8 °F34 %30.31 in10.0 miCalmMostly Cloudy
9:35 AM10.4 °F-11.2 °F37 %30.31 in10.0 miCalmMostly Cloudy
9:55 AM10.4 °F-11.2 °F37 %30.30 in10.0 miEast (100°)3.5 mphMostly Cloudy
10:15 AM12.2 °F-11.2 °F34 %30.29 in10.0 miESE (110°)3.5 mphClear
10:35 AM12.2 °F-16.6 °F27 %30.29 in10.0 miEast (100°)4.6 mphClear
10:55 AM14.0 °F-18.4 °F22 %30.28 in10.0 miCalmClear
11:15 AM15.8 °F-16.6 °F23 %30.28 in10.0 miSW (230°)3.5 mphClear
11:35 AM15.8 °F-16.6 °F23 %30.27 in10.0 miSSW (200°)3.5 mphClear
11:55 AM15.8 °F-14.8 °F25 %30.27 in10.0 miCalmPartly Cloudy
12:15 PM17.6 °F-13.0 °F25 %30.26 in10.0 miWest (260°)5.8 mphMostly Cloudy
12:35 PM17.6 °F-13.0 °F25 %30.25 in10.0 miNNW (330°)3.5 mphMostly Cloudy
12:55 PM17.6 °F-11.2 °F27 %30.24 in10.0 miNW (310°)5.8 mphScattered Clouds
1:15 PM17.6 °F-14.8 °F23 %30.24 in10.0 miNW (320°)5.8 mphMostly Cloudy
1:35 PM17.6 °F-13.0 °F25 %30.23 in10.0 miNNW (330°)5.8 mphOvercast
1:55 PM19.4 °F-11.2 °F25 %30.23 in10.0 miWest (260°)8.1 mphOvercast
2:15 PM19.4 °F-9.4 °F28 %30.23 in10.0 miWNW (300°)5.8 mphOvercast
2:35 PM19.4 °F-11.2 °F25 %30.23 in10.0 miNorth (350°)4.6 mphOvercast
2:55 PM19.4 °F-11.2 °F25 %30.23 in10.0 miNorth (10°)4.6 mphOvercast
3:15 PM19.4 °F-11.2 °F25 %30.23 in10.0 miCalmOvercast
3:35 PM19.4 °F-4.0 °F36 %30.23 in10.0 miWest (260°)6.9 mphOvercast
3:55 PM19.4 °F-0.4 °F42 %30.23 in10.0 miWest (260°)8.1 mphOvercast
4:15 PM17.6 °F6.8 °F63 %30.24 in10.0 miNW (310°)4.6 mphOvercast
4:35 PM17.6 °F1.4 °F49 %30.24 in5.0 miWNW (290°)5.8 mphOvercast
4:55 PM15.8 °F6.8 °F68 %30.23 in5.0 miWNW (300°)3.5 mphOvercast
5:15 PM15.8 °F8.6 °F73 %30.23 in3.0 miWest (270°)4.6 mphOvercast
5:35 PM15.8 °F8.6 °F73 %30.23 in7.0 miWSW (250°)3.5 mphOvercast
5:55 PM15.8 °F10.4 °F79 %30.24 in4.0 miCalmOvercast
6:15 PM15.8 °F12.2 °F86 %30.24 in3.0 miCalmMostly Cloudy
6:35 PM15.8 °F12.2 °F86 %30.24 in5.0 miCalmOvercast
6:55 PM15.8 °F10.4 °F79 %30.24 in3.0 miCalmOvercast
7:15 PM15.8 °F12.2 °F86 %30.24 in5.0 miCalmOvercast
7:35 PM15.8 °F12.2 °F86 %30.23 in7.0 miCalmOvercast
7:55 PM15.8 °F12.2 °F86 %30.23 in6.0 miCalmOvercast
8:15 PM15.8 °F12.2 °F86 %30.23 in10.0 miCalmOvercast
8:35 PM15.8 °F12.2 °F86 %30.23 in5.0 miCalmOvercast
8:55 PM14.0 °F12.2 °F93 %30.24 in9.0 miCalmOvercast
9:15 PM14.0 °F12.2 °F93 %30.23 in9.0 miCalmOvercast
9:35 PM14.0 °F12.2 °F93 %30.24 in8.0 miCalmOvercast
9:55 PM14.0 °F12.2 °F93 %30.23 in5.0 miESE (110°)3.5 mphOvercast
10:15 PM14.0 °F10.4 °F86 %30.23 in9.0 miSSE (160°)3.5 mphOvercast
10:35 PM14.0 °F10.4 °F86 %30.23 in5.0 miSE (140°)4.6 mphOvercast
10:55 PM14.0 °F10.4 °F86 %30.22 in6.0 miSSE (150°)3.5 mphOvercast
11:15 PM14.0 °F10.4 °F86 %30.22 in10.0 miSE (140°)5.8 mphOvercast
11:35 PM14.0 °F10.4 °F86 %30.21 in9.0 miCalmOvercast
11:55 PM14.0 °F12.2 °F93 %30.22 in10.0 miCalmOvercast
Hourly data recorded from KRUT, located miles away from Peru, Vermont







STORIES FROM OUR PARTNERS